EST,Max TemperatureF,Mean TemperatureF,Min TemperatureF,Max Dew PointF,MeanDew PointF,Min DewpointF,Max Humidity, Mean Humidity, Min Humidity, Max Sea Level PressureIn, Mean Sea Level PressureIn, Min Sea Level PressureIn, Max VisibilityMiles, Mean VisibilityMiles, Min VisibilityMiles, Max Wind SpeedMPH, Mean Wind SpeedMPH, Max Gust SpeedMPH,PrecipitationIn, CloudCover, Events, WindDirDegrees
2012-1-1,30,26,21,25,19,5,100,79,34,,,,0,0,0,59,40,59,0.02,3,Fog-Snow,242
2012-1-2,24,14,1,25,12,1,100,100,100,,,,0,0,0,68,49,76,0.29,,Fog-Snow,253
2012-1-3,0,-6,-13,0,-16,-38,100,72,18,,,,0,0,0,59,50,64,0.02,2,Fog-Snow,289
2012-1-4,1,-4,-9,0,-16,-33,100,61,28,,,,0,0,0,56,47,60,0.02,4,Fog-Snow,290
2012-1-5,6,0,-5,7,1,-6,100,100,100,,,,0,0,0,70,52,76,0.16,3,Fog-Snow,276
2012-1-6,21,8,-4,21,12,-11,100,96,66,,,,0,0,0,60,47,68,0.07,5,Fog-Snow,259
2012-1-7,28,22,15,25,20,12,100,91,51,,,,0,0,0,63,48,70,0.03,7,Fog-Snow,265
2012-1-8,15,8,0,16,5,-8,100,98,72,,,,0,0,0,63,53,72,0.06,1,Fog-Snow,283
2012-1-9,8,3,-2,9,3,-11,100,92,66,,,,20,1,0,48,42,55,0.00,5,Fog-Snow,275
2012-1-10,12,6,0,12,7,-20,100,94,39,,,,0,0,0,79,55,90,0.13,4,Fog-Snow,273
2012-1-11,21,10,0,14,2,-24,86,66,28,,,,,,,62,44,53,0.00,4,Snow,275
2012-1-12,26,16,8,27,12,1,100,91,49,,,,0,0,0,63,36,70,0.57,8,Fog-Snow,145
2012-1-13,28,16,3,28,18,3,100,100,100,,,,0,0,0,96,47,104,0.18,8,Fog-Snow,219
2012-1-14,6,-4,-14,7,-13,-36,100,76,26,,,,0,0,0,85,64,93,0.01,5,Fog-Snow,284
2012-1-15,-7,-12,-16,-13,-21,-29,100,65,41,,,,0,0,0,60,42,68,0.00,2,Fog-Snow,322
2012-1-16,12,2,-7,10,-7,-18,100,64,36,,,,0,0,0,61,40,71,0.00,4,Fog-Snow,273
2012-1-17,30,21,12,30,24,12,100,100,100,,,,0,0,0,75,48,85,0.06,,Fog-Snow,243
2012-1-18,28,8,-13,28,-1,-20,100,95,64,,,,0,0,0,110,84,118,0.04,0,Fog-Snow,276
2012-1-19,5,-2,-9,1,-8,-18,100,73,40,,,,0,0,0,60,39,67,0.09,2,Fog-Snow,189
2012-1-20,3,-4,-11,3,-8,-26,100,86,42,,,,0,0,0,66,41,69,0.16,4,Fog-Snow,271
2012-1-21,3,2,0,1,-6,-24,100,77,30,,,,15,1,0,39,32,46,0.07,4,Fog-Snow,281
2012-1-22,19,10,1,-4,-17,-31,45,27,12,,,,,,,43,33,50,0.00,4,Snow,280
2012-1-23,32,24,17,32,18,-11,100,81,27,,,,0,0,0,66,39,78,0.00,3,Fog-Rain-Snow,211
2012-1-24,32,21,10,32,22,10,100,100,100,,,,0,0,0,76,51,86,0.05,,Fog-Rain-Snow,257
2012-1-25,12,9,6,12,5,-4,100,85,57,,,,0,0,0,79,68,89,0.02,6,Fog-Snow,296
2012-1-26,23,16,8,19,0,-24,100,57,12,,,,14,2,0,48,38,55,0.05,6,Fog-Snow,278
2012-1-27,33,22,10,34,22,10,100,100,100,,,,0,0,0,101,42,116,0.21,,Fog-Rain-Snow,213
2012-1-28,24,16,8,14,4,-20,100,74,16,,,,0,0,0,99,66,109,0.02,5,Fog-Snow,265
2012-1-29,10,6,3,10,7,3,100,100,100,,,,0,0,0,74,60,84,0.10,,Fog-Snow,258
2012-1-30,8,2,-5,9,0,-6,100,100,100,,,,0,0,0,69,52,74,0.03,,Fog-Snow,276
2012-1-31,26,10,-4,27,13,-4,100,100,100,,,,0,0,0,60,44,68,0.31,,Fog-Snow,261